Probability
3 3 3 3 3 3 3 2 1 0 0 0 0 0 0 0 0 0 0 0 0 0 0 0 0 1 2 2 2 2 3 3 1 0 0 1 1 1
3 3 3 3 3 3 3 2 1 0 0 0 0 0 0 0 0 0 0 0 0 0 0 0 0 0 1 1 1 1 2 2 2 1 0 0 0 0
3 3 3 3 3 3 3 2 1 0 0 0 0 0 0 0 0 0 0 0 0 0 0 0 0 0 0 0 0 0 1 1 2 2 1 1 0 0
3 3 3 2 1 1 2 1 0 0 0 0 0 0 0 0 0 0 0 0 0 0 0 0 0 0 0 0 0 0 0 0 1 1 1 1 0 0
3 3 3 1 0 0 0 0 0 0 0 0 0 0 0 0 0 0 0 0 0 0 0 0 0 0 0 0 0 0 0 0 0 0 1 1 0 0
2 2 2 1 0 0 0 0 0 0 0 0 0 0 0 0 0 0 0 0 0 0 0 0 0 0 0 0 0 0 0 0 0 0 0 0 0 0
1 1 1 0 0 0 0 0 0 0 0 0 0 0 0 0 0 0 0 0 0 0 0 0 0 0 0 0 0 0 0 0 0 0 0 0 0 0
0 0 0 0 0 0 0 0 0 0 0 0 0 0 0 0 0 0 0 0 0 0 0 0 0 0 0 0 0 0 0 0 0 0 0 0 0 0
0 0 0 0 0 0 0 0 0 0 0 0 0 0 0 0 0 0 0 0 0 0 0 0 0 0 0 0 0 0 0 0 0 0 0 0 0 0
0 0 0 0 0 0 0 0 0 0 0 0 0 0 0 0 0 0 0 0 0 0 0 0 0 0 0 0 0 0 0 0 0 0 0 0 0 0
0 0 0 0 0 0 0 0 0 0 0 0 0 0 0 0 0 0 0 0 0 0 0 0 0 0 0 0 0 0 0 0 0 0 0 0 0 0
0 0 0 0 0 0 0 0 0 0 0 0 0 0 0 0 0 0 0 0 0 0 0 0 0 0 0 0 0 0 0 0 0 0 0 0 0 0
0 0 0 0 0 0 0 0 0 0 0 0 0 0 0 0 0 0 0 0 0 0 0 0 0 0 0 0 0 0 0 0 0 0 0 0 0 0
0 0 0 0 0 0 0 0 0 0 0 0 0 0 0 0 0 0 0 0 0 0 0 0 0 0 0 0 0 0 0 0 0 0 0 0 0 0
0 0 0 0 0 0 0 0 0 0 0 0 0 0 0 0 0 0 0 0 0 0 0 0 0 0 0 0 0 0 0 0 0 0 0 0 0 0
0 0 0 0 0 0 0 0 0 0 0 0 0 0 0 0 0 0 0 0 0 0 0 0 0 0 0 0 0 0 0 0 0 0 0 0 0 0
0 0 0 0 0 0 0 0 0 0 0 0 0 0 0 0 0 0 0 0 0 0 0 0 0 0 0 0 0 0 0 0 0 0 0 0 0 0
0 0 0 0 0 0 0 0 0 0 0 0 0 0 0 0 0 0 0 0 0 0 0 0 0 0 0 0 0 0 0 0 0 0 0 0 0 0
0 0 0 0 0 0 0 0 0 0 0 0 0 0 0 0 0 0 0 0 0 0 0 0 0 0 0 0 0 0 0 0 0 0 0 0 0 0
0 0 0 0 0 0 0 0 0 0 0 0 0 0 0 0 0 0 0 0 0 0 0 0 0 0 0 0 0 0 0 0 0 0 0 0 0 0
0 0 0 0 0 0 0 0 0 0 0 0 0 0 0 0 0 0 0 0 0 0 0 0 0 0 0 0 0 0 0 0 0 0 0 0 0 0
0 0 0 0 0 0 0 0 0 0 0 0 0 0 0 0 0 0 0 0 0 0 0 0 0 0 0 0 0 0 0 0 0 0 0 0 0 0
0 0 0 0 0 0 0 0 0 0 0 0 0 0 0 0 0 0 0 0 0 0 0 0 0 0 0 0 0 0 0 0 0 0 0 0 0 0
Wind_Speed
0 0 0 1 1 0 1 2 2 1 2 2 2 2 2 2 4 3 4 6 6 5 6 8 9 9 9 9 9 9 8 8 8 8 9 9 10 11
1 1 1 1 1 1 0 0 1 2 2 2 2 3 3 2 3 3 3 5 5 4 5 7 9 10 9 9 9 8 8 8 8 9 9 9 9 9
1 1 1 1 1 1 0 0 1 1 2 3 2 2 2 2 1 1 2 2 2 4 4 5 8 9 9 9 9 9 9 9 9 9 9 9 9 9
2 1 2 1 1 1 1 1 1 1 2 2 2 2 2 2 1 1 2 2 2 3 4 4 5 7 8 8 9 9 8 8 8 8 8 9 9 9
1 1 1 1 2 2 1 1 1 1 1 1 2 2 1 1 1 1 1 1 2 3 4 4 4 5 6 7 8 7 7 7 7 7 7 8 8 8
1 1 1 1 1 2 1 1 1 1 0 0 1 2 2 2 1 1 2 1 2 2 2 2 3 4 5 5 6 6 6 7 7 6 6 6 7 7
2 1 1 2 2 1 1 1 0 0 0 0 1 2 2 2 1 1 1 2 2 2 1 1 1 1 2 4 4 6 6 7 7 7 6 6 6 7
1 2 2 2 3 4 4 2 1 1 1 0 1 1 2 2 1 1 1 1 2 2 0 2 1 1 2 2 4 5 6 6 6 6 7 7 6 6
1 1 2 3 3 2 3 4 3 2 1 2 2 3 3 3 2 1 1 1 2 2 0 2 1 1 2 2 4 5 6 7 7 7 7 7 6 6
1 1 1 2 3 2 1 2 3 3 2 1 2 3 3 2 2 2 2 1 1 2 1 1 1 1 2 1 2 4 5 6 7 7 7 7 6 7
2 1 1 1 4 3 1 2 3 4 4 3 2 2 3 3 1 1 1 1 1 2 1 1 1 1 1 2 2 2 3 4 6 7 7 6 6 6
2 2 2 2 3 2 1 0 2 4 3 4 4 4 3 3 2 1 2 1 1 2 1 1 1 0 1 2 2 1 1 2 4 5 6 6 6 4
1 2 2 3 3 3 2 1 2 3 2 2 2 3 3 2 2 1 1 2 2 2 2 1 1 1 1 1 2 1 1 1 1 2 4 5 6 6
2 2 2 3 3 3 2 3 3 2 1 1 2 2 2 3 2 2 2 2 2 3 2 2 1 2 1 1 1 2 1 1 1 1 2 3 4 5
2 3 3 5 4 3 4 5 3 1 1 1 2 2 2 3 2 2 1 1 1 1 1 1 1 2 2 2 2 2 1 1 0 1 1 2 2 3
2 4 4 4 3 3 4 3 2 1 1 2 2 2 2 2 2 1 1 0 1 2 2 1 1 2 1 1 2 1 1 1 0 1 1 1 1 2
2 2 2 2 2 2 2 2 2 1 1 1 1 2 2 2 2 1 1 0 0 1 2 2 1 0 1 1 1 1 1 1 1 1 1 1 1 2
0 1 2 2 2 2 2 3 2 2 2 2 1 1 1 2 2 2 1 0 1 1 1 1 1 2 2 2 0 1 1 1 1 1 1 1 1 1
0 1 2 2 2 2 2 2 2 2 2 1 2 2 2 2 2 2 1 1 1 1 1 1 0 1 0 2 3 1 1 1 1 1 1 1 2 2
1 2 2 2 2 2 2 2 2 2 1 1 2 2 2 2 2 2 2 2 1 1 1 1 1 2 2 3 2 2 1 2 2 1 1 1 1 1
2 2 3 3 2 2 2 2 2 2 2 2 2 2 2 2 2 2 2 2 1 1 2 3 3 3 1 1 1 2 2 2 3 3 2 1 1 1
3 3 3 3 3 2 2 2 2 2 2 2 2 2 2 2 2 3 2 2 2 2 2 2 1 1 1 1 2 2 3 2 1 1 2 3 3 4
3 2 2 2 2 2 2 2 2 2 2 2 2 2 2 2 2 2 2 2 2 1 1 1 1 1 1 2 2 2 2 1 1 1 2 4 3 4
Wind_Direction
295 305 312 290 325 258 180 167 173 250 284 270 281 285 273 241 230 217 218 224 224 228 227 223 221 220 219 218 218 216 214 215 218 221 220 220 219 221
301 350 333 299 308 301 217 226 184 192 247 268 260 274 275 259 234 223 224 223 220 222 231 227 219 215 216 217 220 218 215 216 220 223 222 222 223 223
309 315 296 292 302 295 276 255 245 192 243 283 281 291 285 291 275 243 231 222 223 220 232 232 221 215 217 219 222 219 216 217 220 223 220 219 219 220
305 322 311 320 314 298 287 270 252 223 208 270 299 310 299 275 260 248 247 230 227 229 230 238 233 222 218 220 222 219 216 219 220 221 219 218 219 220
311 321 320 351 340 329 328 317 292 307 197 219 287 307 317 333 343 298 290 294 256 246 237 237 246 242 232 227 221 217 214 215 215 217 216 213 212 215
344 329 325 323 309 302 313 303 315 348 338 255 305 324 329 335 6 329 322 317 293 291 273 248 254 252 247 238 226 217 214 214 215 215 214 211 211 210
350 341 349 6 7 1 357 310 328 17 2 2 320 336 328 341 316 292 293 309 301 287 292 284 281 274 262 250 241 229 219 216 215 215 212 210 210 207
334 335 335 350 3 9 12 17 60 156 205 205 269 282 275 272 277 284 276 312 300 298 212 287 263 262 263 243 238 232 223 214 211 209 206 205 204 199
286 307 331 348 3 353 350 2 353 328 244 204 238 263 251 244 236 283 271 244 255 264 214 283 283 260 259 258 231 225 226 218 208 203 201 198 196 195
311 270 292 325 341 350 350 355 339 328 304 273 228 254 262 252 219 215 222 248 295 295 182 238 279 268 281 288 258 231 229 219 207 201 201 198 195 193
342 343 334 303 328 360 33 355 339 330 340 349 328 317 312 301 264 94 65 76 296 285 277 184 253 287 304 295 291 271 241 216 203 197 196 197 194 187
335 326 334 337 339 358 18 349 321 310 329 340 344 343 338 325 306 204 193 191 223 261 257 179 235 82 320 301 300 307 287 227 205 199 195 196 189 171
308 310 309 330 327 325 320 254 268 293 317 319 323 325 329 323 306 278 213 193 200 236 235 173 186 172 184 287 316 306 272 227 188 198 199 197 189 176
260 278 294 320 321 317 307 297 301 318 332 334 333 319 311 304 296 282 261 235 218 221 221 176 181 188 175 228 281 303 309 277 189 199 195 187 189 190
272 291 307 313 313 309 304 304 307 302 297 289 293 287 282 291 307 317 314 303 324 297 269 210 188 194 185 198 224 239 270 293 248 189 192 187 187 177
304 307 311 312 309 303 313 318 304 261 236 254 268 281 303 324 319 310 287 328 10 333 329 301 203 176 196 224 205 237 226 216 237 223 206 198 186 186
299 322 334 333 328 326 319 306 298 302 288 287 283 294 302 313 305 304 288 319 137 302 325 339 355 99 167 170 197 238 231 224 210 198 177 196 243 216
73 301 303 300 291 291 296 301 295 279 261 251 259 263 278 282 291 302 304 247 229 256 269 292 1 16 11 359 242 222 229 233 227 189 170 178 247 254
128 266 274 278 280 284 286 283 284 284 274 262 263 266 266 269 271 275 285 280 262 252 247 249 155 115 36 303 303 270 214 230 195 186 204 200 221 234
242 257 268 270 270 280 286 285 285 297 301 288 278 273 269 263 262 257 243 235 245 256 263 251 216 207 215 233 259 285 275 202 191 201 227 261 277 270
256 262 266 268 264 266 271 276 278 281 287 287 280 273 265 256 257 253 245 243 231 233 239 251 246 233 211 121 327 305 310 289 205 193 184 174 234 261
261 263 268 270 269 265 265 268 278 283 287 281 277 277 271 254 249 248 236 229 231 236 248 257 248 214 161 180 229 267 293 317 330 305 210 197 184 198
251 255 266 274 272 271 268 269 270 281 282 278 279 281 278 269 260 245 228 218 215 222 235 259 275 243 224 204 212 247 270 285 324 349 315 306 255 224